Flag for Germany Weather past 2 weeks in Warburg, North Rhine-Westphalia, Germany

Now
55 °F

Passing clouds.


Feels Like: 55 °F
Forecast: 43 / 67 °F
Wind: 5 mph from South

Location: Kassel / Calden

Current Time: Aug 20, 2014 at 8:30:54 PM

Latest Report: Aug 20, 2014 at 7:50 PM


Visibility: N/A

Pressure: 29.98 "Hg

Humidity: 77%

Dew point: 48 °F

Location of WarburgLocation

Historic Weather in Warburg — Graph

°F

Warburg temperature yesterday

Maximum temperature yesterday: 64 °F (at 1:20 PM)
Minimum temperature yesterday: 46 °F (at 6:20 AM)
Average temperature yesterday: 55 °F

Past Weeks' High & Low Weather Summary

 TemperatureHumidityPressure
High79 °F (Aug 8, 3:20 PM)100% (Aug 6, 5:50 AM)30.12 "Hg (Aug 6, 5:50 AM)
Low46 °F (Aug 19, 6:20 AM)40% (Aug 12, 3:50 PM)29.65 "Hg (Aug 13, 3:20 PM)
Average63 °F71%29.88 "Hg
* Reported Aug 5 7:20 PM — Aug 20 7:20 PM, Warburg, Weather by CustomWeather, © 2014

Note: Actual official high and low records may vary slightly from our data, if they occured in-between our weather recording intervals... More about our weather records

Advertising

Warburg weather history for previous 24 hours

 ConditionsComfort  
Time TempWeatherWind HumidityBarometerVisibility
7:20 PM
Aug 20
59 °FScattered showers. Broken clouds.7 mph59%29.98 "HgN/A
6:50 PM61 °FSunny.3 mph59%29.98 "Hg10 mi
6:20 PM61 °FSunny.6 mph55%29.98 "Hg10 mi
5:50 PM61 °FPassing clouds.5 mph55%29.98 "HgN/A
5:20 PM61 °FSunny.8 mph52%30.01 "Hg10 mi
4:50 PM61 °FSunny.10 mph55%30.01 "Hg10 mi
4:20 PM63 °FScattered showers. Scattered clouds.8 mph52%30.01 "HgN/A
3:50 PM61 °FScattered clouds.9 mph52%30.01 "HgN/A
3:20 PM61 °FScattered clouds.8 mph52%30.01 "HgN/A
2:50 PM59 °FScattered clouds.12 mph55%30.01 "HgN/A
2:20 PM61 °FScattered clouds.8 mph55%30.01 "HgN/A
1:50 PM61 °FScattered clouds.12 mph52%30.01 "HgN/A
1:20 PM61 °FScattered clouds.12 mph55%30.01 "HgN/A
12:50 PM59 °FScattered clouds.10 mph59%30.01 "HgN/A
12:20 PM59 °FBroken clouds.12 mph63%30.01 "HgN/A
11:50 AM59 °FScattered clouds.10 mph59%30.01 "HgN/A
11:20 AM55 °FScattered clouds.9 mph72%30.01 "HgN/A
10:50 AM55 °FScattered clouds.10 mph72%30.01 "HgN/A
10:20 AM55 °FScattered clouds.13 mph72%30.01 "HgN/A
9:50 AM55 °FPassing clouds.9 mph72%30.01 "HgN/A
9:20 AM54 °FPassing clouds.8 mph77%30.01 "HgN/A
8:50 AM52 °FPassing clouds.5 mph77%30.01 "HgN/A
8:20 AM48 °FSunny.5 mph87%29.98 "Hg10 mi
7:50 AM46 °FPassing clouds.3 mph87%29.98 "HgN/A
7:20 AM46 °FPassing clouds.6 mph87%29.98 "HgN/A
6:50 AM46 °FPassing clouds.7 mph87%29.98 "HgN/A
6:20 AM46 °FPassing clouds.6 mph87%29.98 "HgN/A
5:50 AM46 °FPassing clouds.6 mph87%29.95 "HgN/A
9:50 PM
Aug 19
50 °FPartly cloudy.9 mph82%29.92 "HgN/A
9:20 PM50 °FBroken clouds.10 mph82%29.89 "HgN/A
8:50 PM52 °FBroken clouds.9 mph77%29.89 "HgN/A
8:20 PM54 °FPartly sunny.13 mph82%29.89 "HgN/A
Weather by CustomWeather, © 2014

See weather overviewHow to use our weather pages